Voltar ao catálogo

SL-8 R/B

AtivoLEO
NORAD 5239·ROCKET BODY·🇷🇺 Russia

Lançado May 22, 1971 de Plesetsk Cosmodrome

Loading…

Próximas Passagens (próximas 24 horas)

TLE

AtualizadoSource: Space-Track

Época: Sep 14, 2026, 14:47 UTC

1 05239U 71046B   26257.61655999 -.00000030  00000-0 -77610-5 0  9990
2 05239  74.0227 299.1441 0011579 225.9013 303.4844 13.74051097773031

Acompanhe SL-8 R/B em tempo real com AllMySat

Download on the App Store